SCP
0 0 0 0 0 0 0 0 0 0 0 0 0 0 0 0 0 0 0 0 0 0 0 0 0 0 0 0 0 0 0 0 0 0 0 0 0 0 0 0 0 0 0 0
0 0 0 0 0 0 0 0 0 0 0 0 0 0 0 0 0 0 0 0 0 0 0 0 0 0 0 0 0 0 0 0 0 0 0 0 0 0 0 0 0 0 0 0
0 0 0 0 0 0 0 0 0 0 0 0 0 0 0 0 0 0 0 0 0 0 0 0 0 0 0 0 0 0 0 0 0 0 0 0 0 0 0 0 0 0 0 0
0 0 0 0 0 0 0 0 0 0 0 0 0 0 0 0 0 0 0 0 0 0 0 0 0 0 0 0 0 0 0 0 0 0 0 0 0 0 0 0 0 0 0 0
0 0 0 0 0 0 0 0 0 0 0 0 0 0 0 0 0 0 0 0 0 0 0 0 0 0 0 0 0 0 0 0 0 0 0 0 0 0 0 0 0 0 0 0
0 0 0 0 0 0 0 0 0 0 0 0 0 0 0 0 0 0 0 0 0 0 0 0 0 0 0 0 0 0 0 0 0 0 0 0 0 0 0 0 0 0 0 0
0 0 0 0 0 0 0 0 0 0 0 0 0 0 0 0 0 0 0 0 0 0 0 0 0 0 0 0 0 0 0 0 0 0 0 0 0 0 0 0 0 0 0 0
0 0 0 0 0 0 0 0 0 0 0 0 0 0 0 0 0 0 0 0 0 0 0 0 0 0 0 0 0 0 0 0 0 0 0 0 0 0 0 0 0 0 0 0
0 0 0 0 0 0 0 0 0 0 0 0 0 0 0 0 0 0 0 0 0 0 0 0 0 0 0 0 0 0 0 0 0 0 0 0 0 0 0 0 0 0 0 0
0 0 0 0 0 0 0 0 0 0 0 0 0 0 0 0 0 0 0 0 0 0 0 0 0 0 0 0 0 0 0 0 0 0 0 0 0 0 0 0 0 0 0 0
0 0 0 0 0 0 0 0 0 0 0 0 0 0 0 0 0 0 0 0 0 0 0 0 0 0 0 0 0 0 0 0 0 0 0 0 0 0 0 0 0 0 0 0
0 0 0 0 0 0 0 0 0 0 0 0 0 0 0 0 0 0 0 0 0 0 0 0 0 0 0 0 0 0 0 0 0 0 0 0 0 0 0 0 0 0 0 0
0 0 0 0 0 0 0 0 0 0 0 0 0 0 0 0 0 0 0 0 0 0 0 0 0 0 0 0 0 0 0 0 0 0 0 0 0 0 0 0 0 0 0 0
0 0 0 0 0 0 0 0 0 0 0 0 0 0 0 0 0 0 0 0 0 0 0 0 0 0 0 0 0 0 0 0 0 0 0 0 0 0 0 0 0 0 0 0
0 0 0 0 0 0 0 0 0 0 0 0 0 0 0 0 0 0 0 0 0 0 0 0 0 0 0 0 0 0 0 0 0 0 0 0 0 0 0 0 0 0 0 0
0 0 0 0 0 0 0 0 0 0 0 0 0 0 0 0 0 0 0 0 0 0 0 0 0 0 0 0 0 0 0 0 0 0 0 0 0 0 0 0 0 0 0 0
0 0 0 0 0 0 0 0 0 0 0 0 0 0 0 0 0 0 0 0 0 0 0 0 0 0 0 0 0 0 0 0 0 0 0 0 0 0 0 0 0 0 0 0
0 0 0 0 0 0 0 0 0 0 0 0 0 0 0 0 0 0 0 0 0 0 0 0 0 0 0 0 0 0 0 0 0 0 0 0 0 0 0 0 0 0 0 0
0 0 0 0 0 0 0 0 0 0 0 0 0 0 0 0 0 0 0 0 0 0 0 0 0 0 0 0 0 0 0 0 0 0 0 0 0 0 0 0 0 0 0 0
0 0 0 0 0 0 0 0 0 0 0 0 0 0 0 0 0 0 0 0 0 0 0 0 0 0 0 0 0 0 0 0 0 0 0 0 0 0 0 0 0 0 0 0
0 0 0 0 0 0 0 0 0 0 0 0 0 0 0 0 0 0 0 0 0 0 0 0 0 0 0 0 0 0 0 0 0 0 0 0 0 0 0 0 0 0 0 0
0 0 0 0 0 0 0 0 0 0 0 0 0 0 0 0 0 0 0 0 0 0 0 0 0 0 0 0 0 0 0 0 0 0 0 0 0 0 0 0 0 0 0 0
0 0 0 0 0 0 0 0 0 0 0 0 0 0 0 0 0 0 0 0 0 0 0 0 0 0 0 0 0 0 0 0 0 0 0 0 0 0 0 0 0 0 0 0
0 0 0 0 0 0 0 0 0 0 0 0 0 0 0 0 0 0 0 0 0 0 0 0 0 0 0 0 0 0 0 0 0 0 0 0 0 0 0 0 0 0 0 0
0 0 0 0 0 0 0 0 0 0 0 0 0 0 0 0 0 0 0 0 0 0 0 0 0 0 0 0 0 0 0 0 0 0 0 0 0 0 0 0 0 0 0 0
0 0 0 0 0 0 0 0 0 0 0 0 0 0 0 0 0 0 0 0 0 0 0 0 0 0 0 0 0 0 0 0 0 0 0 0 0 0 0 0 0 0 0 0
0 0 0 0 0 0 0 0 0 0 0 0 0 0 0 0 0 0 0 0 0 0 0 0 0 0 0 0 0 0 0 0 0 0 0 0 0 0 0 0 0 0 0 0
Wind_Speed
1 4 8 9 8 8 7 4 3 0 2 1 2 2 3 5 6 5 4 5 5 6 6 7 7 8 8 8 8 8 8 8 9 9 9 8 9 9 9 8 9 8 7 7
4 6 10 10 9 7 6 4 3 4 2 2 2 3 5 7 6 4 6 7 8 8 8 8 8 9 8 9 9 8 8 9 9 9 8 8 9 8 8 8 8 7 7 8
3 2 4 6 5 5 4 4 3 2 2 4 5 6 7 7 6 7 8 9 9 9 9 9 9 9 9 10 9 8 9 9 9 8 8 9 9 8 8 8 8 8 8 8
1 5 3 2 1 4 5 4 3 1 3 4 5 7 6 6 6 8 9 9 9 9 9 9 9 9 9 9 8 9 9 9 9 8 9 8 8 8 8 7 7 7 8 9
3 2 1 0 3 2 0 2 1 2 5 6 6 5 6 8 8 9 10 10 10 10 10 10 10 10 9 9 8 8 9 9 9 9 9 8 8 8 8 7 7 7 7 8
3 1 3 3 3 3 1 2 2 3 5 6 6 7 7 8 9 10 10 9 10 10 9 9 10 9 8 9 8 9 9 9 9 8 8 9 9 9 7 7 8 7 8 8
2 0 3 3 3 4 3 6 5 4 5 5 5 7 10 10 9 9 10 11 10 9 9 9 10 8 9 10 10 11 10 10 9 9 9 9 9 8 7 7 7 7 8 7
2 2 5 3 3 2 5 5 4 4 5 6 8 9 9 9 10 10 10 10 9 9 10 10 9 9 11 12 12 11 11 10 10 10 10 9 7 7 7 6 7 7 6 7
6 5 5 1 3 3 4 3 4 4 6 6 7 8 9 8 9 9 9 9 9 10 11 11 10 10 12 13 12 12 11 11 11 10 9 8 8 8 7 6 5 6 5 5
3 1 3 2 1 1 1 2 4 4 6 6 7 8 9 8 8 9 9 10 10 11 12 13 12 12 12 13 12 12 12 11 9 9 9 8 7 6 6 5 5 5 5 5
2 1 0 2 2 2 2 4 5 6 5 6 7 8 7 8 9 9 9 9 9 11 13 15 14 14 14 13 12 11 11 10 9 8 8 7 6 6 6 6 6 6 5 5
5 5 4 4 4 2 3 5 5 6 7 7 6 7 8 9 8 9 11 11 12 13 14 15 15 15 14 12 11 10 9 8 7 6 5 5 5 5 7 8 9 10 9 7
6 4 4 2 2 3 3 4 5 5 6 7 7 7 8 8 8 10 12 13 13 14 15 15 15 15 13 11 10 10 9 8 6 5 5 5 4 4 4 4 5 6 7 7
4 3 1 1 1 3 3 4 5 6 6 6 6 8 8 9 11 13 14 14 14 15 15 14 15 14 13 11 10 10 9 9 8 5 5 4 4 4 3 3 2 1 2 3
4 4 3 1 2 4 4 4 5 6 7 7 7 8 9 11 12 14 14 14 14 15 15 15 15 14 13 11 11 10 8 6 5 4 3 3 3 3 2 3 2 2 1 1
4 4 4 3 3 4 4 5 5 7 7 7 7 9 10 11 12 13 14 14 15 16 16 15 14 15 14 12 10 8 6 10 8 3 2 2 1 1 1 2 2 2 3 3
4 2 1 2 2 3 3 4 4 6 7 7 8 10 10 11 12 14 15 14 14 14 13 13 15 15 14 11 10 7 6 6 8 4 1 1 1 1 1 2 2 2 2 4
6 5 5 3 2 2 3 4 5 6 6 7 8 9 10 12 13 14 15 16 15 14 13 14 15 16 13 11 9 6 5 4 3 2 1 0 0 1 1 2 2 3 3 4
7 6 5 4 3 2 2 4 5 5 6 7 8 9 9 10 11 13 14 15 15 15 16 17 20 15 12 12 12 5 5 5 3 2 1 1 1 1 2 2 2 3 4 4
6 6 5 4 3 2 2 4 5 5 6 6 7 8 10 11 12 13 13 12 10 12 16 17 16 12 11 11 12 6 5 4 3 2 2 1 2 2 2 2 3 3 4 4
7 6 5 3 1 2 3 4 4 5 6 6 6 8 9 10 11 11 12 11 13 15 17 17 12 11 10 10 10 5 5 4 3 2 2 2 2 2 2 3 3 3 3 3
6 5 4 2 1 3 4 3 3 4 5 6 6 7 9 10 12 11 9 8 12 18 14 10 11 15 15 12 6 5 5 4 3 2 3 2 2 2 3 3 3 3 3 3
5 5 3 2 2 2 3 3 3 3 4 5 6 7 7 8 7 9 11 10 11 17 13 10 17 22 18 8 6 6 6 5 4 3 2 2 2 2 2 3 3 3 3 3
5 5 4 3 1 1 2 3 3 3 3 3 4 5 6 7 7 6 7 12 16 17 11 13 19 21 15 8 7 7 6 5 4 3 3 2 2 2 2 2 3 2 3 3
6 5 4 2 1 1 2 2 2 3 3 3 5 5 5 4 6 8 9 11 15 15 11 13 18 18 12 10 9 8 7 6 5 4 3 2 2 2 3 3 3 3 3 3
6 5 4 4 4 3 2 0 1 1 2 3 4 4 5 5 6 7 7 10 13 14 11 10 12 12 11 11 10 10 8 8 7 5 3 3 3 3 3 3 4 3 3 2
5 4 3 3 2 2 2 1 0 0 1 1 2 4 5 6 6 8 9 9 10 10 10 10 10 10 10 10 10 9 8 8 8 7 6 4 3 3 3 3 3 3 3 3
Wind_Direction
316 77 78 69 60 61 72 92 115 125 116 35 3 354 332 324 319 322 328 320 303 287 276 272 268 265 260 257 256 253 249 245 245 246 246 246 247 247 248 248 250 244 245 249
13 94 92 72 45 46 55 46 65 97 91 336 326 341 331 325 320 313 301 294 289 285 279 273 268 265 262 260 257 251 248 249 249 249 249 246 246 246 246 245 246 243 241 243
328 309 78 37 15 44 53 34 74 96 286 309 328 327 312 306 295 291 293 292 287 280 271 269 266 264 264 262 260 255 254 256 254 250 248 245 249 249 244 243 242 241 242 239
2 29 40 231 10 73 103 86 82 105 298 302 292 286 281 285 285 292 292 288 283 277 274 271 268 269 268 266 263 261 261 260 258 253 251 247 244 245 245 242 239 240 242 240
76 50 145 290 5 3 299 196 40 336 312 304 298 313 296 282 281 282 283 282 280 277 279 281 281 280 280 279 276 274 271 267 264 259 257 252 248 245 242 239 241 241 240 239
66 50 246 255 305 309 16 240 282 336 317 307 326 326 290 284 285 285 286 286 288 290 293 292 288 289 290 287 285 281 278 274 270 262 259 256 253 249 245 239 241 243 245 240
71 357 259 276 314 37 62 271 287 297 296 297 290 265 275 293 295 292 293 296 299 300 298 292 292 294 290 287 282 280 280 277 273 265 260 258 254 249 246 243 244 244 247 247
84 18 276 301 47 95 232 252 280 288 289 289 283 284 292 299 301 304 306 307 306 303 299 296 296 297 293 288 285 284 281 277 274 269 267 273 258 254 247 241 245 248 247 255
173 206 227 143 142 199 214 262 282 287 294 296 301 300 303 304 307 308 307 304 302 303 304 303 300 297 293 291 290 287 283 278 275 271 264 261 257 256 255 242 237 241 236 247
109 158 162 137 144 299 303 299 300 303 306 314 310 307 312 312 310 309 305 306 307 311 311 309 305 300 293 293 291 287 284 280 275 271 268 261 253 248 245 241 237 235 231 238
127 224 217 330 336 333 347 345 336 327 319 319 318 316 314 313 311 310 309 310 313 314 311 309 308 304 300 297 293 289 285 280 275 269 266 263 254 245 241 235 227 225 227 222
207 220 197 259 286 352 9 342 331 330 326 324 323 316 316 314 311 312 315 315 316 314 311 310 309 307 306 303 299 295 291 285 277 269 267 262 258 265 254 245 246 238 235 226
173 182 179 240 355 9 353 337 335 338 331 326 323 319 321 315 313 317 318 318 317 314 313 311 311 310 311 309 305 300 294 291 283 272 266 261 252 248 263 271 253 244 239 226
150 132 93 3 333 344 348 342 346 342 333 326 321 322 322 318 318 321 321 319 316 315 314 314 314 315 315 313 307 301 296 294 290 275 269 262 252 242 232 232 246 263 258 219
134 131 150 130 22 3 354 353 354 339 330 327 325 326 325 324 323 322 321 321 320 319 320 320 320 319 317 314 311 306 301 295 289 278 268 260 254 240 225 206 197 183 135 87
124 94 80 56 20 1 357 359 350 331 327 327 327 324 322 322 321 321 323 326 326 324 323 324 323 321 319 317 314 309 303 307 309 292 275 266 256 235 202 182 174 166 159 145
126 115 87 46 16 6 358 348 336 326 326 328 322 320 325 327 328 328 328 327 323 320 321 325 325 324 322 320 317 311 306 309 317 316 305 285 241 181 161 161 167 159 157 160
140 144 140 128 108 23 351 341 331 327 324 317 319 327 331 333 331 329 328 327 327 327 332 332 329 328 324 325 322 315 314 313 314 313 319 3 67 135 141 143 144 136 128 138
126 121 111 98 92 60 347 322 320 319 317 320 326 328 328 328 327 327 329 331 335 337 337 334 329 330 329 329 334 325 328 331 341 350 5 68 64 85 106 116 116 122 130 136
124 119 107 92 69 33 329 317 323 321 318 322 329 330 333 332 332 332 333 332 336 336 331 329 330 332 331 331 338 333 339 347 358 10 30 69 90 93 98 105 111 117 126 134
132 124 113 99 35 339 323 322 325 322 320 329 335 331 330 330 333 336 337 337 337 339 334 330 336 337 333 332 333 338 344 350 2 19 34 57 85 95 99 107 111 116 123 128
145 139 135 135 323 315 310 316 322 326 331 338 339 338 339 338 338 337 335 333 331 335 336 337 342 340 339 339 343 349 354 1 15 29 42 59 82 93 101 109 112 115 120 126
161 161 163 194 239 281 314 327 331 337 340 344 345 345 341 334 335 339 337 334 335 335 337 341 341 343 346 352 353 355 359 9 23 36 43 54 76 94 103 113 118 118 122 125
170 174 187 205 193 17 331 315 325 340 347 349 348 346 341 339 339 339 326 327 336 337 342 343 345 350 354 0 1 2 3 8 16 24 32 44 58 74 90 104 112 115 119 121
177 180 183 175 173 217 250 303 344 353 359 353 346 345 345 344 337 334 334 337 341 345 347 349 353 355 1 2 5 5 4 4 7 11 27 37 44 61 77 89 100 110 111 113
180 183 187 184 181 184 184 136 353 334 350 353 344 341 344 343 342 343 342 343 346 349 354 355 356 359 0 2 5 5 4 1 3 7 17 35 50 59 69 81 97 106 113 115
180 170 158 152 162 161 150 138 128 340 11 17 351 342 345 348 350 350 351 352 353 354 356 357 359 360 0 2 5 7 8 6 5 6 12 26 42 59 68 78 82 88 99 106